Waarnemingen

Advertentie
Mijn weer
Quimper, Frankrijk (7201): temperatuur & dauwpunt: 17.10.2017 04:00:00 - 23.10.2017 04:00:00 (CEST)Quimper, Frankrijk (7201): temperatuur 5cm: 17.10.2017 04:00:00 - 23.10.2017 04:00:00 (CEST)Quimper, Frankrijk (7201): temperatuur -20cm: 17.10.2017 04:00:00 - 23.10.2017 04:00:00 (CEST)Quimper, Frankrijk (7201): windsnelheid & windstoten: 17.10.2017 04:00:00 - 23.10.2017 04:00:00 (CEST)Quimper, Frankrijk (7201): windrichting: 17.10.2017 04:00:00 - 23.10.2017 04:00:00 (CEST)Quimper, Frankrijk (7201): luchtdruk: 17.10.2017 04:00:00 - 23.10.2017 04:00:00 (CEST)Quimper, Frankrijk (7201): zicht: 17.10.2017 04:00:00 - 23.10.2017 04:00:00 (CEST)Quimper, Frankrijk (7201): Zonneschijnduur: 17.10.2017 04:00:00 - 23.10.2017 04:00:00 (CEST)Quimper, Frankrijk (7201): neerslag: 17.10.2017 04:00:00 - 23.10.2017 04:00:00 (CEST)
Datum & Tijd tt [°C] td [°C] tt 5cm [°C] tt -20cm [°C] ff [km/u] ff [kn] fx [km/u] fx [kn] dd ppp [hPa] vv [km] sd [min] rr [mm]
23.10.2017 04:00:00 13,6 11,1 12,9 13,3 15 8 27 15 ZW 1023,5 55 0 0,0
23.10.2017 03:00:00 13,2 11,3 12,8 13,3 11 6 16 9 ZW 1023,9 45 0 0,0
23.10.2017 02:00:00 13,1 10,6 12,3 13,3 11 6 19 10 ZW 1024,2 46 0 0,0
23.10.2017 01:00:00 12,5 10,2 12,0 13,3 5 3 15 8 ZW 1024,8 10 0 0,0
23.10.2017 00:00:00 12,4 9,8 11,8 13,4 10 6 15 8 WZW 1024,8 56 0 0,0
22.10.2017 23:00:00 12,1 9,3 11,7 13,3 10 5 18 10 WZW 1025,1 50 0 0,0
22.10.2017 22:00:00 12,4 9,4 12,2 13,3 13 7 23 12 WZW 1025,1 10 0 0,0
22.10.2017 21:00:00 12,5 9,0 12,1 13,3 13 7 24 13 WZW 1025,3 50 0 0,0
22.10.2017 20:00:00 12,3 9,3 11,9 13,3 11 6 23 13 WZW 1025,3 10 0 0,0
22.10.2017 19:00:00 12,6 8,1 12,3 13,2 11 6 20 11 W 1025,1 10 0 0,0
22.10.2017 18:00:00 12,9 8,2 12,9 13,2 13 7 29 16 W 1025,0 10 0 0,0
22.10.2017 17:00:00 13,1 8,4 12,7 13,1 15 8 30 16 W 1025,1 20 0 0,0
22.10.2017 16:00:00 13,4 7,4 13,1 13,1 18 10 39 21 W 1025,3 10 1 0,0
22.10.2017 15:00:00 14,0 8,4 13,3 13,0 20 11 39 21 WNW 1025,5 20 12 0,0
22.10.2017 14:00:00 14,4 7,9 12,9 13,0 23 13 43 23 WNW 1025,2 20 24 0,0
22.10.2017 13:00:00 13,7 8,1 13,4 13,0 26 14 45 24 WNW 1024,8 10 47 0,0
22.10.2017 12:00:00 13,5 8,5 13,1 13,0 28 15 48 26 WNW 1024,5 10 56 0,0
22.10.2017 11:00:00 11,5 9,7 9,9 13,2 11 6 31 17 WNW 1024,4 20 13 0,0
22.10.2017 10:00:00 9,8 7,9 8,6 13,2 8 4 23 13 W 1023,9 20 1 0,0
22.10.2017 09:00:00 9,5 7,6 8,2 13,3 18 10 43 23 WNW 1023,2 10 0 0,4
22.10.2017 08:00:00 9,1 7,2 8,1 13,4 17 9 45 25 WNW 1023,0 38 0 0,0
22.10.2017 07:00:00 9,9 6,6 7,9 13,4 22 12 39 21 WNW 1022,6 20 0 0,4
22.10.2017 06:00:00 9,8 5,4 8,9 13,5 26 14 49 26 WNW 1022,0 49 0 0,0
22.10.2017 05:00:00 9,9 7,0 8,3 13,6 20 11 32 18 WNW 1021,7 17 0 0,0
22.10.2017 04:00:00 9,4 6,7 7,9 13,7 18 10 39 21 W 1021,4 10 0 0,0
22.10.2017 03:00:00 9,8 7,2 8,1 13,7 24 13 40 22 W 1021,0 10 0 0,2
22.10.2017 02:00:00 9,3 7,1 7,8 13,8 21 12 61 33 WNW 1020,9 17 0 0,4
22.10.2017 01:00:00 10,0 7,6 8,6 13,9 26 14 42 23 WNW 1020,9 10 0 0,0
22.10.2017 00:00:00 10,0 7,1 8,4 14,0 24 13 41 22 W 1020,2 20 0 0,0
21.10.2017 23:00:00 10,0 7,2 8,7 14,0 29 15 51 28 WNW 1019,4 4,8 0 1,0
21.10.2017 22:00:00 10,5 7,4 8,7 14,1 22 12 51 28 W 1018,8 17 0 0,2
21.10.2017 21:00:00 10,0 7,2 7,9 14,1 23 12 49 26 W 1018,4 19 0 0,4
21.10.2017 20:00:00 9,8 6,0 8,0 14,2 37 20 72 39 WNW 1018,2 8 0 0,6
21.10.2017 19:00:00 12,1 6,4 11,6 14,2 32 18 61 33 W 1016,9 34 14 0,0
21.10.2017 18:00:00 12,3 7,0 10,5 14,1 28 15 57 31 W 1016,6 10 28 0,0
21.10.2017 17:00:00 12,1 6,8 10,6 14,2 36 19 69 37 W 1016,2 18 22 0,0
21.10.2017 16:00:00 12,7 8,2 11,1 14,1 34 18 66 36 W 1015,3 10 21 0,2
21.10.2017 15:00:00 13,9 7,9 10,9 14,1 34 18 71 38 W 1014,8 10 52 0,0
21.10.2017 14:00:00 13,8 8,2 11,4 14,2 34 18 75 41 W 1014,4 10 36 0,0
21.10.2017 13:00:00 14,0 8,8 11,3 14,2 33 18 65 35 W 1013,7 18 43 0,0
21.10.2017 12:00:00 12,7 9,9 10,0 14,2 29 16 49 26 W 1013,4 10 11 0,6
21.10.2017 11:00:00 12,4 9,2 10,8 14,3 22 12 62 33 W 1013,0 10 18 1,4
21.10.2017 10:00:00 13,5 8,3 11,3 14,4 35 19 64 34 WZW 1012,1 10 13 0,0
21.10.2017 09:00:00 13,0 8,5 11,4 14,4 35 19 68 37 W 1011,4 10 0 0,0
21.10.2017 08:00:00 13,1 8,4 12,6 14,4 31 17 60 33 WZW 1010,8 10 0 0,0
21.10.2017 07:00:00 13,9 8,7 13,4 14,5 36 19 61 33 WZW 1010,1 15 0 0,0
21.10.2017 06:00:00 13,7 9,3 13,2 14,5 30 16 58 32 ZW 1009,5 15 0 0,0
21.10.2017 05:00:00 13,9 9,1 13,3 14,5 37 20 69 37 WZW 1009,5 10 0 0,0
21.10.2017 04:00:00 13,9 10,1 13,3 14,5 32 17 60 32 WZW 1009,0 16 0 0,0
21.10.2017 03:00:00 13,7 11,9 13,0 14,5 26 14 41 22 ZW 1008,6 10 0 0,0
21.10.2017 02:00:00 13,8 13,0 12,3 14,5 26 14 49 26 WZW 1008,1 7 0 0,6
21.10.2017 01:00:00 12,8 11,9 12,2 14,5 15 8 29 16 ZZW 1007,7 10 0 0,3
21.10.2017 00:00:00 12,7 11,9 11,9 14,5 15 8 55 30 ZZW 1007,6 10 0 1,8
20.10.2017 23:00:00 13,7 11,9 12,6 14,5 34 18 67 36 WZW 1008,0 4,5 0 2,4
20.10.2017 22:00:00 16,1 15,5 15,1 14,4 32 18 60 33 Z 1006,4 1,9 0 1,2
20.10.2017 21:00:00 15,8 14,7 14,8 14,4 31 17 56 30 Z 1007,3 14 0 0,0
20.10.2017 20:00:00 15,3 14,5 14,5 14,4 27 15 50 27 Z 1008,3 13 0 0,2
20.10.2017 19:00:00 15,0 14,0 14,4 14,3 23 13 48 26 Z 1009,1 13 0 0,2
20.10.2017 18:00:00 15,6 13,3 15,5 14,2 24 13 49 26 Z 1009,7 20 0 0,0
20.10.2017 17:00:00 15,6 12,7 15,9 14,1 25 14 52 28 Z 1010,6 20 1 0,0
20.10.2017 16:00:00 15,9 12,1 16,7 14,1 24 13 50 27 Z 1011,4 10 5 0,0
20.10.2017 15:00:00 15,7 11,1 16,6 14,1 24 13 51 28 Z 1012,2 10 11 0,0
20.10.2017 14:00:00 15,6 10,6 16,4 14,0 22 12 38 21 Z 1012,9 10 19 0,0
20.10.2017 13:00:00 15,7 9,6 15,5 14,1 22 12 35 19 ZZW 1013,4 60 18 0,0
20.10.2017 12:00:00 15,0 8,9 14,9 14,1 22 12 32 17 ZW 1013,2 10 51 0,0
20.10.2017 11:00:00 13,4 10,0 12,8 14,3 5 3 8 5 Z 1013,4 20 58 0,0
20.10.2017 10:00:00 9,7 8,6 7,9 14,3 0 0 10 5 N 1013,4 20 4 0,0
20.10.2017 09:00:00 8,6 6,6 6,8 14,4 6 3 11 6 W 1013,0 34 0 0,0
20.10.2017 08:00:00 9,1 6,9 7,3 14,5 6 4 10 5 WZW 1012,1 38 0 0,0
20.10.2017 07:00:00 9,7 7,1 8,6 14,6 8 5 17 9 W 1011,8 35 0 0,0
20.10.2017 06:00:00 10,4 7,3 9,6 14,6 12 7 21 11 W 1011,1 37 0 0,0
20.10.2017 05:00:00 11,3 8,2 10,2 14,7 13 7 25 14 W 1010,6 10 0 0,0
20.10.2017 04:00:00 11,7 8,9 10,4 14,8 14 8 24 13 W 1010,2 33 0 0,0
20.10.2017 03:00:00 11,3 8,5 10,2 14,8 13 7 30 16 W 1009,7 10 0 0,0
20.10.2017 02:00:00 11,4 9,1 10,3 14,9 14 7 28 15 W 1009,1 19 0 0,2
20.10.2017 01:00:00 11,2 8,8 10,3 15,0 14 8 26 14 W 1008,2 20 0 0,0
20.10.2017 00:00:00 11,6 9,2 10,3 15,0 15 8 30 16 W 1007,6 10 0 0,2
19.10.2017 23:00:00 11,9 9,5 11,3 15,1 16 9 38 20 W 1006,7 19 0 0,0
19.10.2017 22:00:00 12,2 10,1 11,7 15,1 18 10 32 18 W 1005,5 18 0 0,0
19.10.2017 21:00:00 12,4 10,6 11,5 15,1 21 11 35 19 W 1004,7 20 0 0,0
19.10.2017 20:00:00 13,0 11,1 12,6 15,1 23 12 46 25 W 1003,3 18 0 0,0
19.10.2017 19:00:00 14,2 12,8 14,1 15,1 20 11 44 24 W 1001,8 20 0 0,2
19.10.2017 18:00:00 15,2 14,7 14,4 15,1 32 17 66 36 ZW 1000,7 1,1 0 5,3
19.10.2017 17:00:00 14,6 14,0 14,2 15,0 36 19 58 31 Z 1000,4 2,7 0 7,7
19.10.2017 16:00:00 14,6 13,8 14,2 15,0 28 15 52 28 Z 1001,8 3,5 0 3,8
19.10.2017 15:00:00 15,5 14,0 14,6 15,0 28 15 50 27 Z 1002,6 10 0 0,2
19.10.2017 14:00:00 15,3 13,8 14,5 15,0 22 12 51 27 Z 1003,8 8 0 0,8
19.10.2017 13:00:00 16,5 13,8 16,3 15,0 26 14 46 25 Z 1004,8 10 8 0,0
19.10.2017 12:00:00 15,6 14,1 15,6 14,9 18 10 34 18 Z 1005,3 10 2 0,0
19.10.2017 11:00:00 14,6 13,8 13,0 15,0 15 8 25 13 Z 1005,9 10 25 0,0
19.10.2017 10:00:00 12,9 12,4 11,7 15,1 9 5 15 8 ZZW 1006,2 9 0 0,0
19.10.2017 09:00:00 12,0 11,4 10,4 15,1 8 4 12 6 ZZW 1005,6 7 0 0,2
19.10.2017 08:00:00 11,9 11,3 10,7 15,2 4 2 6 4 ZO 1005,4 7 0 0,0
19.10.2017 07:00:00 12,4 11,5 11,4 15,2 0 0 9 5 N 1006,1 11 0 0,0
19.10.2017 06:00:00 13,0 12,1 12,7 15,3 6 3 18 10 NW 1006,5 18 0 0,0
19.10.2017 05:00:00 12,9 12,3 10,6 15,3 13 7 16 9 W 1006,8 9 0 0,0
19.10.2017 04:00:00 11,5 10,7 10,6 15,4 4 2 9 5 NNW 1007,5 10 0 0,0
19.10.2017 03:00:00 12,4 11,5 11,0 15,4 5 3 9 5 N 1007,7 15 0 0,0
19.10.2017 02:00:00 13,0 11,6 12,3 15,5 4 2 10 5 - 1008,3 10 0 0,0
19.10.2017 01:00:00 13,6 12,3 12,5 15,5 8 4 10 6 NNO 1008,8 10 0 0,0
19.10.2017 00:00:00 13,0 12,1 11,5 15,6 7 4 10 5 N 1009,1 20 0 0,0
18.10.2017 23:00:00 13,2 12,3 10,9 15,6 5 3 10 5 NNO 1009,3 27 0 0,0
18.10.2017 22:00:00 12,7 11,4 10,7 15,6 8 4 11 6 N 1009,5 33 0 0,0
18.10.2017 21:00:00 13,3 11,9 11,3 15,5 8 4 11 6 N 1009,7 36 0 0,0
18.10.2017 20:00:00 13,9 11,9 12,2 15,4 8 5 10 5 NNW 1009,8 39 0 0,0
18.10.2017 19:00:00 15,9 12,6 15,8 15,3 6 3 10 5 NNW 1009,4 46 41 0,0
18.10.2017 18:00:00 17,5 13,2 18,3 15,2 0 0 11 6 N 1009,5 10 18 0,0
18.10.2017 17:00:00 18,1 13,0 18,4 15,0 5 3 15 8 - 1009,3 10 20 0,0
18.10.2017 16:00:00 18,4 11,9 19,2 14,9 0 0 7 4 N 1009,7 10 8 0,0
18.10.2017 15:00:00 19,5 12,7 18,9 14,8 5 3 10 6 - 1010,0 10 53 0,0
18.10.2017 14:00:00 18,5 12,9 18,2 14,7 4 2 9 5 - 1010,5 10 50 0,0
18.10.2017 13:00:00 16,8 13,5 17,0 14,7 5 3 11 6 - 1011,0 10 47 0,0
18.10.2017 12:00:00 15,4 13,1 16,4 14,8 4 2 8 4 - 1010,8 10 52 0,0
18.10.2017 11:00:00 13,9 13,4 12,5 14,8 4 2 8 5 O 1011,1 17 42 0,0
18.10.2017 10:00:00 12,1 11,6 9,0 14,9 0 0 5 3 N 1011,3 0,6 34 0,0
18.10.2017 09:00:00 10,4 9,9 7,9 15,0 3 1 8 4 NO 1010,8 0,1 0 0,0
18.10.2017 08:00:00 11,3 10,8 7,5 15,0 3 2 5 3 ONO 1010,7 0,2 0 0,0
18.10.2017 07:00:00 11,9 11,3 10,9 15,0 2 1 9 5 NNO 1010,9 0,8 0 0,0
18.10.2017 06:00:00 12,1 11,5 11,6 15,1 0 0 10 5 N 1011,1 10 0 0,0
18.10.2017 05:00:00 12,2 11,6 10,7 15,1 6 3 12 7 WNW 1011,3 18 0 0,0
18.10.2017 04:00:00 12,0 11,4 10,1 15,1 7 4 11 6 W 1011,8 4,6 0 0,0
18.10.2017 03:00:00 13,5 12,9 12,5 15,1 8 4 12 7 W 1011,8 8 0 0,0
18.10.2017 02:00:00 14,7 14,1 14,3 15,1 8 4 23 12 WZW 1012,0 4,2 0 0,2
18.10.2017 01:00:00 14,5 13,9 13,5 15,1 4 2 9 5 Z 1012,3 3,3 0 0,2
18.10.2017 00:00:00 13,8 13,0 13,1 15,1 4 2 8 4 OZO 1012,6 7 0 0,0
17.10.2017 23:00:00 13,6 12,7 12,7 15,1 4 2 11 6 - 1013,0 10 0 0,2
17.10.2017 22:00:00 13,4 12,5 12,8 15,1 9 5 13 7 ONO 1012,8 10 0 0,0
17.10.2017 21:00:00 13,5 12,6 13,0 15,1 9 5 13 7 NO 1012,9 10 0 0,0
17.10.2017 20:00:00 13,6 12,8 13,1 15,1 8 4 14 7 ONO 1013,6 10 0 0,0
17.10.2017 19:00:00 13,4 12,8 12,8 15,2 11 6 21 11 ONO 1013,5 10 0 0,6
17.10.2017 18:00:00 13,1 12,3 12,4 15,2 9 5 21 11 NO 1014,0 8 0 1,0
17.10.2017 17:00:00 12,7 11,9 12,3 15,1 13 7 22 12 NO 1014,9 8 0 0,8
17.10.2017 16:00:00 12,6 11,3 12,1 15,2 11 6 18 10 NO 1015,8 9 0 0,4
17.10.2017 15:00:00 12,5 11,2 12,3 15,2 13 7 25 14 NO 1016,4 10 0 0,0
17.10.2017 14:00:00 12,6 11,2 12,4 15,2 14 7 23 13 NNO 1017,4 19 0 0,0
17.10.2017 13:00:00 12,6 11,5 11,5 15,3 15 8 21 11 NNO 1018,0 10 0 0,4
17.10.2017 12:00:00 11,6 10,5 11,0 15,3 11 6 17 9 ONO 1019,5 10 0 1,6
17.10.2017 11:00:00 11,6 10,2 10,8 15,4 9 5 16 9 ONO 1019,8 10 0 0,4
17.10.2017 10:00:00 11,7 9,9 10,8 15,5 9 5 16 9 ONO 1020,0 10 0 0,2
17.10.2017 09:00:00 11,1 9,8 10,1 15,5 7 4 13 7 O 1020,0 16 0 0,0
17.10.2017 08:00:00 10,7 9,8 9,6 15,6 5 3 11 6 NO 1020,0 10 0 0,0
17.10.2017 07:00:00 10,7 9,9 10,0 15,7 5 3 11 6 NO 1020,7 10 0 0,0
17.10.2017 06:00:00 10,6 9,8 10,0 15,8 7 4 10 6 NNO 1020,5 11 0 0,0
17.10.2017 05:00:00 10,5 9,9 10,1 15,9 4 2 9 5 NNO 1021,5 10 0 0,0
17.10.2017 04:00:00 10,3 9,7 9,2 16,0 5 3 9 5 NNO 1022,1 9 0 0,0

tt = temperatuur
td = dauwpunt
tt 5cm = temperatuur 5cm
tt -20cm = temperatuur -20cm
ff = windsnelheid
fx = windstoten
dd = windrichting
ppp = luchtdruk
vv = zicht
sd = Zonneschijnduur
rr = neerslag

Weerstations in de omgeving